Weather in Kedainiai

Lithuania     55°17′17″N   23°58′15″E
temp.,
°C
wind,
m/s
gust,
m/s
humid.,
%
clouds,
%
prec.,
mm/h
press.,
hPa
HPBL,
m
6 august, fri
fri600:00+13ene51284100 0.0 1011364
03:00+11ene51394100 0.0 1010446
06:00+11ne61494100 0.0 1008462
09:00+13ne71586100 0.2 1006649
12:00+13ne81694100 4.9 1004685
15:00+13ne81596100 6.8 1003817
18:00+13ne71495100 0.1 1002737
21:00+14ne61396100 0.1 1000531
7 august, sat
sat700:00+15ne61198100 0.8 1000506
03:00+16e4899100 1.1 999378
06:00+14ese3698100 0.1 999293
09:00+14ese3599100 0.9 1000335
12:00+14se2397100 0.5 1001259
15:00+15w2395100 0.6 1003445
18:00+17wsw3693100 0.1 1004382
21:00+16wsw359689 0.2 1006165
8 august, sun
sun800:00+16wsw4109742 0.1 1008324
03:00+13sw36975 0.1 1010121
06:00+12sw23968 0.0 101139
09:00+16s348383 0.0 1011234
12:00+22sse4565100 0.0 1011723
15:00+24se6856100 0.0 10101292
18:00+22se5117696 0.3 1009403
21:00+20ssw5119125 2.4 1009357
9 august, mon
mon900:00+17sw6129433 0.0 1012525
03:00+15sw4109730 0.0 1014333
06:00+14sw389873 0.0 1015209
09:00+18sw478685 0.0 1016361
12:00+22wsw68625 0.6 10171341
15:00+24wsw695022 0.6 10172221
18:00+21w68670 0.2 1018688
21:00+17wsw33810 0.3 101931
10 august, tue
tue1000:00+14w22905 0.0 102011
03:00+14wsw229064 0.0 102011
06:00+13sse2291100 0.0 102014
09:00+18sse2376100 0.0 1019229
12:00+22s3458100 0.5 1019761
15:00+24s334776 0.8 10181787
18:00+23se345454 0.0 10161364
21:00+16nnw3595100 1.5 1017119